Regional Weather Roundup
Issued by NWS

Home | Current Version | Previous Version | Graphics & Text | Print | Product List | Glossary On
Versions: 1 2 3 4 5 6 7 8 9 10 11 12 13 14 15 16 17 18 19 20 21 22 23 24 25 26 27 28 29 30 31 32 33 34 35 36 37 38 39 40 41 42 43 44 45 46 47 48 49 50
000
ASUS43 KLOT 181258
RWRIL

ILLINOIS REGIONAL WEATHER ROUNDUP
NATIONAL WEATHER SERVICE CHICAGO/ROMEOVILLE IL
800 AM CDT FRI APR 18 2014

NOTE: "FAIR" INDICATES FEW OR NO CLOUDS BELOW 12,000 FEET WITH NO
SIGNIFICANT WEATHER AND/OR OBSTRUCTIONS TO VISIBILITY.

* THESE STATIONS ARE NOT UNDER NWS QUALITY CONTROL. THEY ALSO MAY NOT
  REPORT WEATHER SUCH AS PRECIPITATION OR FOG.

ILZ001-002-007-009-015-016-024-181400-
NORTHWEST ILLINOIS

CITY           SKY/WX    TMP DP  RH WIND       PRES   REMARKS
MOLINE         SUNNY     39  33  79 CALM      30.35R
$$

ILZ003-004-008-010-011-017-018-181400-
NORTH CENTRAL ILLINOIS

CITY           SKY/WX    TMP DP  RH WIND       PRES   REMARKS
ROCKFORD       NOT AVBL
$$

ILZ005-006-012>014-019>023-181400-
NORTHEAST ILLINOIS

CITY           SKY/WX    TMP DP  RH WIND       PRES   REMARKS
CHICAGO-OHARE  MOSUNNY   44  33  65 N8        30.32R
CHICAGO-MIDWAY MOSUNNY   45  37  73 N9        30.32R
AURORA         SUNNY     41  37  86 NE7       30.32R FOG
WAUKEGAN       SUNNY     39  33  79 N7        30.32R WCI  34
DUPAGE AIRPORT SUNNY     42  37  82 N5        30.32R HAZE
WHEELING       SUNNY     43  35  73 N6        30.34R
NORTHERLY ISL    N/A     42  35  76 N13         N/A
$$

LMZ740>746-181400-
SOUTHERN LAKE MICHIGAN

STATION/POSITION SKY/WX   TEMP    WIND        PRES    VSBY  WAVE
                          AIR SEA DIR/SP/G                  HT/PER
                          (F)     (DEG/KT/KT) (MB)    (MI)  (FT/S)
WAUKEGAN HARBOR            40     350/  9/ 11 1028.1R
HARRISON CRIB              40     350/ 11/ 12   N/A
BURNHAM HARBOR             42     350/ 10/ 13   N/A
CALUMET HARBOR             41     330/ 10/ 12 1027.1R
MICHIGAN CITY              40      10/  5/  6   N/A
$$

ILZ025>027-034>036-040-047-049-050-058-095>099-181400-
WEST-CENTRAL ILLINOIS

CITY           SKY/WX    TMP DP  RH WIND       PRES   REMARKS
$$

ILZ028>032-037-038-041>044-048-051>054-059>061-181400-
CENTRAL ILLINOIS

CITY           SKY/WX    TMP DP  RH WIND       PRES   REMARKS
PEORIA         NOT AVBL
SPRINGFIELD    SUNNY     48  38  68 N7        30.32S
TAYLORVILLE    NOT AVBL
$$

ILZ033-039-045-046-055>057-062-063-181400-
EAST-CENTRAL ILLINOIS

CITY           SKY/WX    TMP DP  RH WIND       PRES   REMARKS
CHAMPAIGN      SUNNY     49  40  71 N7        30.30R
$$

ILZ079-100>102-181400-
SOUTHWEST ILLINOIS

CITY           SKY/WX    TMP DP  RH WIND       PRES   REMARKS
CAHOKIA*       SUNNY     50  41  71 NE6       30.31R
$$

ILZ064>066-069>071-074>076-080>082-084>086-088>090-092>094-181400-
SOUTH-CENTRAL ILLINOIS

CITY           SKY/WX    TMP DP  RH WIND       PRES   REMARKS
CARBONDALE     MOSUNNY   51  43  74 NW6       30.29R
MARION         MOSUNNY   54  48  82 N6        30.29R
$$

ILZ067-068-072-073-078-083-087-091-181400-
SOUTHEAST ILLINOIS

CITY           SKY/WX    TMP DP  RH WIND       PRES   REMARKS
$$

ABBREVIATIONS USED IN REMARKS
   TC - TEMPERATURE IN CELSIUS
  WCI - WIND CHILL INDEX
   HX - HEAT INDEX
  VSB - VISIBILITY
$$




USA.gov is the U.S. government's official web portal to all federal, state and local government web resources and services.